OpenBCM V2.0.3 (Linux)

Packet Radio Mailbox

IZ3LSV

[San Dona' di P. JN]

 Login: GUEST





  
LU9DCE > KEP      18.12.19 20:33l 241 Lines 12022 Bytes #999 (0) @ WW
BID : 3118_LU9DCE
Read: GUEST
Subj: TLE 24 11
Path: IZ3LSV<IW0QNL<JH4XSY<N3HYM<LU4ECL<LU9DCE
Sent: 191124/1600Z 3118@LU9DCE.TOR.BA.ARG.SOAM LinBPQ6.0.19

            __    _  _  ___  ____   ___  ____    ____  ____  ____
           (  )  / )( \/ _ \(    \ / __)(  __)  (  _ \(  _ \/ ___)
           / (_/\) \/ (\__  )) D (( (__  ) _)    ) _ ( ) _ (\___ \
           \____/\____/(___/(____/ \___)(____)  (____/(____/(____/
               ESTACION DE PACKET RADIO - BUENOS AIRES (GF05OM)
                   BOLETINES INFORMATIVOS PROGRAMADOS (BIP)
                  SLACKWARE LINUX - HELLOCODELINUX@GMAIL.COM
+----------------------------------------------------------------------------+
OSCAR 7
1  7530U 74089B   19328.44457876 -.00000040  00000-0  30420-4 0  9999
2  7530 101.7688 294.6048 0012475  41.4182  79.6120 12.53640923 60411
OSCAR 11 (UoSAT 2)
1 14781U 84021B   19328.51895734  .00000098  00000-0  18142-4 0  9998
2 14781  97.6010 345.6388 0009187 149.6359 210.5389 14.83122510922306
OSCAR 19 (LUSAT)
1 20442U 90005G   19327.40802048 -.00000016  00000-0  10470-4 0  9998
2 20442  98.6661 269.2553 0012627  48.2118 312.0142 14.32938496558969
EYESAT A
1 22825U 93061C   19327.55403156 -.00000004  00000-0  16348-4 0  9990
2 22825  98.9157 319.8910 0007398 258.2377 101.7975 14.30071718364513
ITAMSAT
1 22826U 93061D   19327.58884116  .00000016  00000-0  24116-4 0  9997
2 22826  98.9097 319.8983 0007972 245.3864 114.6488 14.30406205364721
RADIO ROSTO
1 23439U 94085A   19327.65110243 -.00000036 +00000-0 +18656-3 0  9990
2 23439 064.8159 220.6821 0145572 082.2846 279.4580 11.27568754025706
JAS 2
1 24278U 96046B   19327.56857180 -.00000054 +00000-0 -18847-4 0  9993
2 24278 098.5614 099.7472 0350234 190.6135 168.7475 13.53094761148907
TECHSAT 1B
1 25397U 98043D   19328.45397782 -.00000024  00000-0  87495-5 0  9993
2 25397  98.7050 266.7743 0000651 354.8557   5.2615 14.23674802110469
ISS (ZARYA)
1 25544U 98067A   19328.47806978  .00001893  00000-0  41124-4 0  9999
2 25544  51.6463 286.5827 0006227 320.1499 141.5168 15.50037910200122
PCSAT
1 26931U 01043C   19328.41508054 -.00000028  00000-0  20945-4 0  9994
2 26931  67.0509 314.0920 0007389 265.4280  94.5978 14.30559632947676
SAUDISAT 1C
1 27607U 02058C   19328.34119378 -.00000029  00000-0  16770-4 0  9993
2 27607  64.5550 284.5393 0071712 225.4559 134.0673 14.75590788910449
CUTE-1
1 27844U 03031E   19328.51156882  .00000064  00000-0  48417-4 0  9999
2 27844  98.6842 334.3526 0008883 294.1930  65.8319 14.22207093850864
CUBESAT XI 4
1 27848U 03031J   19328.54908338  .00000047  00000-0  41342-4 0  9998
2 27848  98.6916 334.9205 0008870 307.2460  52.7908 14.21798420850711
MOZHAYETS 4
1 27939U 03042A   19328.44665008  .00000124  00000-0  30771-4 0  9994
2 27939  98.0620 101.3886 0011754 286.6579  73.3343 14.66819920863810
CUBESAT XI 5
1 28895U 05043F   19328.38044201  .00000120  00000-0  31961-4 0  9996
2 28895  97.9817 105.8956 0016276 206.8379 153.1983 14.63713602750696
CUTE-1.7+APD II
1 32785U 08021C   19327.61003320  .00000241  00000-0  31577-4 0  9997
2 32785  97.5582 319.9501 0014561  98.4151 261.8718 14.88377845627177
DELFI C3
1 32789U 08021G   19327.63729703 +.00001006 +00000-0 +70665-4 0  9994
2 32789 097.4463 012.4022 0010806 309.2268 050.8000 15.07273339630653
SEEDS
1 32791U 08021J   19328.50249989  .00000357  00000-0  41443-4 0  9997
2 32791  97.5322 326.9044 0014762  71.2439 289.0380 14.90917169627772
YUBELEINY
1 32953U 08025A   19328.51973375  .00000021  00000-0  75656-4 0  9996
2 32953  82.5072  45.9853 0020217 142.0860 218.1640 12.43092410522046
PRISM (HITOMI)
1 33493U 09002B   19328.50665567  .00000343  00000-0  35462-4 0  9990
2 33493  98.1277 255.5110 0015914  22.1291 338.0613 14.96818690588900
KKS-1 (KISEKI)
1 33499U 09002H   19328.56790515  .00000114  00000-0  24800-4 0  9994
2 33499  98.3356 172.2562 0010274  64.2053 296.0214 14.75482001582655
SWISSCUBE
1 35932U 09051B   19328.44754478  .00000138  00000-0  42198-4 0  9993
2 35932  98.5995 139.2192 0008300  44.9776 315.2092 14.56332542539884
BEESAT
1 35933U 09051C   19327.47927987  .00000121  00000-0  38235-4 0  9992
2 35933  98.6009 140.0414 0006726  60.6180 299.5688 14.56415350539854
ITUPSAT 1
1 35935U 09051E   19328.45314502  .00000092  00000-0  32336-4 0  9999
2 35935  98.6117 141.2704 0008984  54.5871 305.6164 14.55569256539737
XIWANG-1 (HOPE-1)
1 36122U 09072B   19327.74932711 -.00000045  00000-0 -68956-5 0  9998
2 36122 100.0803 322.7396 0007430 345.6516  14.4373 13.16351927477675
TISAT 1
1 36799U 10035E   19327.44213597  .00000403  00000-0  46724-4 0  9994
2 36799  98.1739 125.0378 0011043 290.7702  69.2332 14.91208860508271
JUGNU
1 37839U 11058B   19328.45119199  .00000327  00000-0  32418-4 0  9991
2 37839  19.9612  92.0263 0018874 277.7292 134.8519 14.12665207419735
SRMSAT
1 37841U 11058D   19327.67004372 +.00000312 +00000-0 +26196-4 0  9993
2 37841 019.9702 156.8108 0011894 132.1628 294.4204 14.10643933418932
M-CUBED/EXP-1 PRIME
1 37855U 11061F   19327.56546176 +.00002388 +00000-0 +12571-3 0  9999
2 37855 101.7222 304.2708 0172549 328.7387 030.3652 15.05810511440065
HORYU 2
1 38340U 12025D   19328.43796823  .00000196  00000-0  36651-4 0  9994
2 38340  98.3111  11.6419 0010974 344.4320  15.6550 14.75778412404574
STRAND 1
1 39090U 13009E   19327.56671369  .00000030  00000-0  25791-4 0  9990
2 39090  98.4711 170.7655 0009175 173.1584 186.9728 14.35106220353034
SOMP
1 39134U 13015E   19327.56258142 +.00001351 +00000-0 +69848-4 0  9994
2 39134 064.8630 228.8418 0038001 277.3801 082.3008 15.20522592364212
BEESAT 3
1 39135U 13015F   19328.22898794  .00001209  00000-0  68421-4 0  9990
2 39135  64.8669 247.2328 0040861 281.6223  78.0318 15.17751751364306
BEESAT 2
1 39136U 13015G   19327.27192973  .00001185  00000-0  68819-4 0  9995
2 39136  64.8691 254.6077 0030407 287.0798  72.6998 15.17163923364073
CUBEBUG 1
1 39153U 13018D   19328.51238430  .00000228  00000-0  36533-4 0  9999
2 39153  97.9822  65.7779 0017830  47.4267 312.8446 14.80628919355313
ZACUBE
1 39417U 13066B   19327.58532908 +.00000219 +00000-0 +33953-4 0  9991
2 39417 097.5616 332.2085 0057675 235.4905 124.0855 14.81181902324415
TRITON 1
1 39427U 13066M   19328.48923661  .00000248  00000-0  47344-4 0  9993
2 39427  97.6975 296.2303 0114264  17.7823 342.7331 14.67910237321639
GOMX 1
1 39430U 13066Q   19328.42674582  .00000213  00000-0  47004-4 0  9991
2 39430  97.7665 274.6815 0152141 113.5334 248.1942 14.59312428319752
HUMSAT D
1 39433U 13066T   19327.59516013  .00000630  00000-0  66406-4 0  9995
2 39433  97.5351   8.4935 0031940 132.0951 228.2992 14.92307603326629
CUBEBUG 2
1 39440U 13066AA  19327.51570185  .00000234  00000-0  39697-4 0  9997
2 39440  97.6128 316.7203 0078861 292.7547  66.5344 14.75920487323253
FUNCUBE 1
1 39444U 13066AE  19328.51087704  .00000280  00000-0  40723-4 0  9995
2 39444  97.5581 335.1723 0056968 225.3857 134.2703 14.82015235323459
UWE-3
1 39446U 13066AG  19328.53546130  .00000226  00000-0  36778-4 0  9997
2 39446  97.5864 324.8440 0068501 261.5932  97.7511 14.78455137322732
SPROUT
1 39770U 14029E   19328.32611645  .00000561  00000-0  67992-4 0  9992
2 39770  97.8916  70.6615 0008020 290.1368  69.8991 14.87512707298410
UNISAT 6
1 40012U 14033C   19328.52346590  .00000193  00000-0  36166-4 0  9994
2 40012  97.7334 188.1007 0057250 306.2276  53.3649 14.74036178292084
DUCHIFAT 1
1 40021U 14033M   19328.36141256  .00000468  00000-0  53498-4 0  9990
2 40021  97.9297 253.5078 0011560 245.3078 114.6936 14.90744336295180
QB50P1
1 40025U 14033R   19328.42987400  .00000255  00000-0  33058-4 0  9994
2 40025  97.9077 247.8510 0011006 256.4123 103.5868 14.89025603294947
CHUBUSAT 1
1 40300U 14070C   19328.27511910  .00000601  00000-0  29029-4 0  9991
2 40300  97.3126  38.3338 0018843 216.9032 169.1271 15.22259558280148
NUDT-PHONESAT
1 40900U 15049B   19328.57966918  .00002088  00000-0  90869-4 0  9990
2 40900  97.4363 336.3958 0012466 355.1802 121.3627 15.23309864231848
ZDPS 2A
1 40901U 15049C   19328.56316067  .00000801  00000-0  42724-4 0  9992
2 40901  97.4621 332.1251 0013979  17.0084 100.2154 15.17943076231339
ZDPS 2B
1 40902U 15049D   19328.53828041  .00001362  00000-0  70511-4 0  9998
2 40902  97.4578 329.4712 0013871  14.6106 101.6981 15.17837232231307
XW-2A
1 40903U 15049E   19328.57731841  .00002022  00000-0  48816-4 0  9991
2 40903  97.3188  12.1067 0011838 293.4349 224.0488 15.42349444234733
KAITUO 1A
1 40904U 15049F   19328.54762252  .00000678  00000-0  39195-4 0  9994
2 40904  97.4718 327.8903 0015352  23.0729 134.9233 15.15514574231050
OBJECT G
1 40905U 15049G   19328.53589626  .00000656  00000-0  39229-4 0  9990
2 40905  97.4774 325.2670 0016254  18.5865  96.8944 15.14399184230914
XW-2C
1 40906U 15049H   19328.44946131  .00000423  00000-0  25586-4 0  9992
2 40906  97.4725 327.9538 0015185  14.8977 143.6885 15.15832157231041
XW-2D
1 40907U 15049J   19328.53375779  .00000881  00000-0  49207-4 0  9991
2 40907  97.4704 327.7198 0014537  12.1843 118.7687 15.16038019231074
LILACSAT 2
1 40908U 15049K   19328.56676642  .00000094  00000-0  87902-5 0  9999
2 40908  97.4844 326.3897 0016519  18.8928  98.9060 15.13895447230841
XW-2F
1 40910U 15049M   19328.53873498  .00001196  00000-0  62829-4 0  9991
2 40910  97.4659 329.9719 0014733   4.1538 119.2968 15.17552866231104
XW-2B
1 40911U 15049N   19328.57304068  .00000482  00000-0  28525-4 0  9990
2 40911  97.4722 328.4342 0014421  12.9517 113.7008 15.15963817230978
KAITUO 1B
1 40912U 15049P   19328.58950611  .00001142  00000-0  56314-4 0  9994
2 40912  97.4505 333.9134 0014388 343.9695 135.0303 15.19896126231444
TIANWANG 1C (TW-1C)
1 40926U 15051B   19328.37047833  .00015923  00000-0  20462-3 0  9998
2 40926  97.1159  14.4872 0008395 131.8953 287.9881 15.59135324234859
